Regional Weather Roundup
Issued by NWS Little Rock, AR

Home | Current Version | Previous Version | Graphics & Text | Print | Product List | Glossary On
Versions: 1 2 3 4 5 6 7 8 9 10 11 12 13 14 15 16 17 18 19 20 21 22 23 24 25 26 27
000
ASUS44 KLZK 192205
RWRLZK

WEATHER ROUNDUP FOR ARKANSAS
NATIONAL WEATHER SERVICE LITTLE ROCK AR
500 PM CDT SAT APR 19 2014

NOTE: "FAIR" INDICATES FEW OR NO CLOUDS BELOW 12,000 FEET WITH NO
SIGNIFICANT WEATHER AND/OR OBSTRUCTIONS TO VISIBILITY.

ARZ001-003-010-029-192300-
NORTHWEST ARKANSAS

CITY           SKY/WX    TMP DP  RH WIND       PRES   REMARKS
FAYETTEVILLE   SUNNY     73  49  42 SW9       30.13F
FORT SMITH     SUNNY     80  47  31 MISG      30.10F
HARRISON       MOSUNNY   76  45  33 SE9       30.14F
BENTONVILLE    SUNNY     75  45  33 SW10      30.15S
ROGERS         SUNNY     76  45  33 S13       30.14F
SILOAM SPGS    SUNNY     75  46  35 S8        30.14F
HIGHFILL       SUNNY     74  46  36 SW5       30.13F
SPRINGDALE     SUNNY     75  46  35 S8G15     30.15F
$$

ARZ004-005-016-192300-
NORTH CENTRAL ARKANSAS

CITY           SKY/WX    TMP DP  RH WIND       PRES   REMARKS
BATESVILLE     SUNNY     77  45  31 CALM      30.13F
FLIPPIN        MOSUNNY   77  45  31 SE3       30.13F
MTN HOME       MOSUNNY   77  41  27 CALM      30.12F
$$

ARZ040-041-192300-
WEST CENTRAL ARKANSAS

CITY           SKY/WX    TMP DP  RH WIND       PRES   REMARKS
MENA           MOSUNNY   79  45  29 S6        30.14F
MOUNT IDA      SUNNY     73  49  42 S6        30.12S
$$

ARZ009-017-025-026-028-192300-
NORTHEAST ARKANSAS

CITY           SKY/WX    TMP DP  RH WIND       PRES   REMARKS
CORNING          N/A     75  43  31 E6        30.16S
JONESBORO      MOSUNNY   75  42  30 E7        30.14F
NEWPORT        MOSUNNY   76  43  30 VRB3      30.16F
WALNUT RIDGE   MOSUNNY   75  46  35 E5        30.15F
BLYTHEVILLE    SUNNY     76  45  33 E6        30.14F
$$

ARZ022-023-033-042-044-192300-
CENTRAL ARKANSAS

CITY           SKY/WX    TMP DP  RH WIND       PRES   REMARKS
LITTLE ROCK    PTSUNNY   76  45  33 VRB5      30.14F
N LITTLE ROCK  PTSUNNY   75  50  41 E3        30.14F
JACKSONVILLE   SUNNY     77  48  36 SE7       30.13F
SEARCY         SUNNY     76  49  38 E8        30.15F
HOT SPRINGS    MOSUNNY   77  49  37 W6        30.13F
RUSSELLVILLE   PTSUNNY   78  50  37 CALM      30.12F
CLINTON        FAIR      77  52  41 S6        30.13F
$$

ARZ036-192300-
EAST ARKANSAS

CITY           SKY/WX    TMP DP  RH WIND       PRES   REMARKS
WEST MEMPHIS   MOSUNNY   76  43  30 VRB5      30.12F
$$

ARZ050-053-066-070-073-192300-
SOUTHWEST ARKANSAS

CITY           SKY/WX    TMP DP  RH WIND       PRES   REMARKS
ARKADELPHIA    FAIR      79  51  37 CALM      30.13F
CAMDEN         MOSUNNY   75  50  41 MISG      30.12F
TEXARKANA      PTSUNNY   75  52  44 VRB3      30.13F
EL DORADO      SUNNY     75  49  39 CALM      30.13F
DE QUEEN       MOSUNNY   75  52  44 SE6       30.11F
$$

ARZ056-057-069-192300-
SOUTHEAST ARKANSAS

CITY           SKY/WX    TMP DP  RH WIND       PRES   REMARKS
PINE BLUFF     SUNNY     76  51  41 E7        30.13F
STUTTGART      SUNNY     75  50  41 N6        30.15F
MONTICELLO     MOSUNNY   76  50  40 E6        30.12F

$$





USA.gov is the U.S. government's official web portal to all federal, state and local government web resources and services.